Gold Coast Seaway Observation History
Time Wind Speed Temp Pressure Rel. Hum Rain
24/09:30am NW 5-6 kts 18.4°c 1022.7 hPa 78% 0.0mm
24/09:00am WNW 6-8 kts 18.0°c 1023.2 hPa 81% 1.0mm
24/08:30am WNW 4-6 kts 17.1°c 1022.6 hPa 85% 1.0mm
24/08:00am W 4-6 kts 16.5°c 1022.6 hPa 87% 1.0mm
24/07:30am W 5-7 kts 16.4°c 1022.8 hPa 90% 1.0mm
24/07:00am W 7-10 kts 16.0°c 1022.7 hPa 90% 1.0mm
24/06:30am NW 6-9 kts 16.4°c 1022.2 hPa 91% 1.0mm
24/06:00am N 4-6 kts 16.0°c 1022.0 hPa 90% 1.0mm
24/05:30am WNW 6-8 kts 15.8°c 1022.2 hPa 90% 1.0mm
24/05:00am NW 5-10 kts 16.1°c 1022.2 hPa 90% 1.0mm
24/04:30am WSW 4-6 kts 15.6°c 1022.0 hPa 90% 0.8mm
24/04:00am SW 3-5 kts 15.5°c 1022.0 hPa 89% 0.8mm
24/03:30am WNW 1-3 kts 15.8°c 1022.7 hPa 89% 0.8mm
24/03:00am WNW 5-6 kts 15.9°c 1023.1 hPa 88% 0.8mm
24/02:30am WNW 5-7 kts 15.9°c 1023.5 hPa 87% 0.6mm
24/02:00am WNW 6-8 kts 16.1°c 1023.6 hPa 87% 0.6mm
24/01:30am SW 5-7 kts 16.0°c 1023.5 hPa 87% 0.6mm
24/01:00am W 5-7 kts 16.1°c 1024.0 hPa 87% 0.6mm
24/12:30am SW 4-5 kts 15.9°c 1024.0 hPa 87% 0.4mm
24/12:00am SW 4-5 kts 16.1°c 1024.3 hPa 86% 0.4mm
Time Wind Speed Temp Pressure Rel. Hum Rain
23/11:30pm SW 4-5 kts 16.3°c 1024.9 hPa 86% 0.4mm
23/11:00pm W 4-6 kts 16.5°c 1025.0 hPa 86% 0.4mm
23/10:30pm WNW 1-5 kts 16.8°c 1025.2 hPa 84% 0.4mm
23/10:00pm SW 5-7 kts 16.6°c 1025.0 hPa 83% 0.4mm
23/09:30pm SW 5-7 kts 16.8°c 1025.2 hPa 81% 0.4mm
23/09:00pm SW 6-9 kts 17.3°c 1024.9 hPa 79% 0.4mm
23/08:30pm NE 8-11 kts 19.4°c 1024.8 hPa 72% 0.4mm
23/08:00pm NE 9-13 kts 19.6°c 1024.6 hPa 71% 0.4mm
23/07:30pm NE 8-10 kts 19.6°c 1024.2 hPa 74% 0.4mm
23/07:00pm ENE 8-11 kts 19.6°c 1023.9 hPa 76% 0.4mm
23/06:30pm ENE 10-12 kts 19.4°c 1023.8 hPa 73% 0.4mm
23/06:00pm ENE 9-11 kts 19.3°c 1024.0 hPa 71% 0.4mm
23/05:30pm ENE 8-10 kts 19.5°c 1024.2 hPa 74% 0.4mm
23/05:00pm ENE 11-13 kts 19.3°c 1024.1 hPa 72% 0.4mm
23/04:30pm ENE 7-10 kts 19.7°c 1024.2 hPa 70% 0.4mm
23/04:00pm E 6-8 kts 19.5°c 1024.4 hPa 68% 0.4mm
23/03:30pm ESE 7-8 kts 19.7°c 1024.4 hPa 70% 0.4mm
23/03:00pm E 7-8 kts 20.1°c 1024.6 hPa 70% 0.4mm
23/02:30pm E 7-10 kts 20.5°c 1024.8 hPa 71% 0.4mm
23/02:00pm E 8-10 kts 20.8°c 1024.9 hPa 72% 0.4mm
23/01:30pm ENE 8-10 kts 21.6°c 1025.1 hPa 65% 0.4mm
23/01:00pm E 8-11 kts 21.4°c 1025.6 hPa 70% 0.4mm
23/12:30pm ESE 9-10 kts 20.5°c 1026.2 hPa 69% 0.4mm
23/12:00pm E 11-14 kts 19.6°c 1026.8 hPa 71% 0.4mm
23/11:30am S 8-11 kts 20.0°c 1027.4 hPa 79% 0.4mm
23/11:00am S 7-10 kts 18.3°c 1027.8 hPa 81% 0.4mm
23/10:30am SSW 6-9 kts 17.8°c 1028.3 hPa 84% 0.4mm
23/10:00am S 7-10 kts 17.4°c 1028.5 hPa 83% 0.2mm
23/09:30am SSE 5-8 kts 17.5°c 1028.7 hPa 83% 0.2mm
23/09:00am SSW 5-7 kts 17.1°c 1028.5 hPa 83% 1.2mm
23/08:30am SW 5-7 kts 16.2°c 1028.4 hPa 84% 1.2mm
23/08:00am SSW 5-8 kts 15.7°c 1028.1 hPa 86% 1.2mm
23/07:30am S 5-7 kts 15.1°c 1027.7 hPa 86% 1.2mm
23/07:00am SSW 6-8 kts 15.4°c 1027.6 hPa 87% 1.2mm
23/06:30am SW 6-9 kts 15.5°c 1027.4 hPa 87% 1.2mm
23/06:00am SSW 5-6 kts 15.6°c 1027.0 hPa 87% 1.2mm
23/05:30am S 5-7 kts 15.4°c 1026.8 hPa 87% 1.0mm
23/05:00am SSW 7-10 kts 15.3°c 1026.8 hPa 87% 0.8mm
23/04:30am SW 9-11 kts 15.1°c 1027.4 hPa 86% 0.4mm
23/04:00am SW 6-8 kts 15.6°c 1026.7 hPa 85% 0.4mm
23/03:30am S 9-13 kts 16.1°c 1026.3 hPa 87% 0.4mm
23/03:00am S 9-15 kts 16.1°c 1027.0 hPa 84% 0.4mm
23/02:30am SSW 6-9 kts 16.0°c 1026.9 hPa 78% 0.0mm
23/02:00am S 8-13 kts 16.5°c 1026.5 hPa 81% 0.0mm
23/01:30am S 9-13 kts 16.3°c 1026.9 hPa 80% 0.0mm
23/01:00am S 8-13 kts 15.5°c 1027.3 hPa 83% 0.0mm
23/12:30am SSW 5-7 kts 14.7°c 1028.0 hPa 81% 0.0mm
23/12:00am SSW 5-8 kts 15.0°c 1028.1 hPa 81% 0.0mm
Time Wind Speed Temp Pressure Rel. Hum Rain
22/11:30pm SSW 6-8 kts 15.2°c 1028.4 hPa 80% 0.0mm
22/11:00pm SSW 7-11 kts 15.6°c 1028.7 hPa 78% 0.0mm
22/10:30pm SSW 7-11 kts 16.2°c 1029.0 hPa 77% 0.0mm
22/10:00pm SSW 8-11 kts 15.8°c 1028.7 hPa 77% 0.0mm
22/09:30pm SSW 6-9 kts 15.7°c 1028.6 hPa 78% 0.0mm
22/09:00pm SSW 7-12 kts 15.9°c 1028.8 hPa 81% 0.0mm
22/08:30pm SSE 13-20 kts 16.5°c 1028.8 hPa 82% 0.0mm
22/08:00pm S 9-13 kts 16.9°c 1028.3 hPa 74% 0.0mm
22/07:30pm S 7-10 kts 16.6°c 1028.5 hPa 70% 0.0mm
22/07:00pm S 10-16 kts 17.2°c 1028.5 hPa 68% 0.0mm
22/06:30pm S 12-19 kts 17.7°c 1028.1 hPa 68% 0.0mm
22/06:00pm S 13-17 kts 17.7°c 1027.8 hPa 68% 0.0mm
22/05:30pm SSE 16-22 kts 18.5°c 1027.5 hPa 69% 0.0mm
22/05:00pm SSE 15-21 kts 18.4°c 1026.8 hPa 66% 0.0mm
22/04:30pm SSE 16-22 kts 19.1°c 1026.7 hPa 63% 0.0mm
22/04:00pm S 10-15 kts 20.0°c 1026.4 hPa 57% 0.0mm
22/03:30pm SSE 13-18 kts 20.3°c 1026.0 hPa 58% 0.0mm
22/03:00pm SSE 14-18 kts 20.2°c 1025.8 hPa 57% 0.0mm
22/02:30pm SSE 13-19 kts 20.8°c 1025.9 hPa 58% 0.0mm
22/02:00pm SSE 18-24 kts 20.8°c 1025.9 hPa 55% 0.0mm
22/01:30pm SSE 17-23 kts 20.7°c 1025.8 hPa 59% 0.0mm
22/01:00pm SSE 19-26 kts 20.6°c 1026.2 hPa 57% 0.0mm
22/12:30pm SSE 17-21 kts 20.9°c 1026.3 hPa 52% 0.0mm
22/12:00pm SSE 16-21 kts 20.8°c 1026.6 hPa 55% 0.0mm
22/11:30am SSE 15-21 kts 20.8°c 1027.3 hPa 54% 0.0mm
22/11:00am S 11-18 kts 20.9°c 1028.1 hPa 48% 0.0mm
22/10:30am S 12-21 kts 20.4°c 1028.2 hPa 51% 0.0mm
22/10:00am SSW 11-17 kts 19.7°c 1028.4 hPa 51% 0.0mm
22/09:30am S 9-15 kts 18.2°c 1028.0 hPa 57% 0.0mm
22/09:00am S 11-16 kts 18.3°c 1027.8 hPa 58% 0.0mm
22/08:30am S 11-16 kts 17.4°c 1027.2 hPa 61% 0.0mm
22/08:00am S 10-16 kts 16.6°c 1026.6 hPa 65% 0.0mm
22/07:30am S 12-18 kts 15.6°c 1026.2 hPa 68% 0.0mm
22/07:00am S 10-15 kts 15.4°c 1026.1 hPa 70% 0.0mm
22/06:30am S 10-17 kts 15.3°c 1025.6 hPa 70% 0.0mm
22/06:00am S 8-13 kts 14.7°c 1025.5 hPa 72% 0.0mm
22/05:30am SSW 6-11 kts 14.8°c 1025.3 hPa 73% 0.0mm
22/05:00am SSW 6-8 kts 14.4°c 1025.1 hPa 75% 0.0mm
22/04:30am SSW 5-9 kts 14.2°c 1024.7 hPa 75% 0.0mm
22/04:00am SSW 7-9 kts 14.4°c 1024.6 hPa 75% 0.0mm
22/03:30am SSW 6-10 kts 14.5°c 1024.6 hPa 75% 0.0mm
22/03:00am S 7-12 kts 14.7°c 1024.7 hPa 74% 0.0mm
22/02:30am S 8-14 kts 15.0°c 1024.5 hPa 74% 0.0mm
22/02:00am SSW 7-12 kts 15.0°c 1024.5 hPa 75% 0.0mm
22/01:30am SSW 8-12 kts 15.0°c 1024.4 hPa 74% 0.0mm
22/01:00am SSW 9-13 kts 15.3°c 1024.2 hPa 73% 0.0mm
22/12:30am S 10-17 kts 15.4°c 1024.2 hPa 73% 0.0mm
22/12:00am S 9-13 kts 15.2°c 1024.3 hPa 74% 0.0mm